This demonstration page uses our WeatherBlox Daily Observations layout. Learn more.

Left ArrowRight Arrow

Hourly Observations for April 20, 2019

Temp ( °F °C ) Dew Point ( °F °C ) Humidity (%) Winds ( mph kmh ) Pressure ( in mb ) Visibility ( mi km ) Precip ( " mm )
12:53 am 00:53 Clear 59 15 36 2.2 42 42 ESE 8 13 29.99 1016 10 16 0.00 0.00
1:53 am 01:53 Clear 58 14.4 36 2.2 44 44 SE 10 17 29.98 1015 10 16 0.00 0.00
2:53 am 02:53 Clear 54 12.2 37 2.8 53 53 SE 8 13 29.96 1015 10 16 0.00 0.00
3:53 am 03:53 Clear 54 12.2 37 2.8 53 53 SE 10 17 29.94 1014 10 16 0.00 0.00
4:53 am 04:53 Clear 54 12.2 37 2.8 53 53 SE 10 17 29.93 1013 10 16 0.00 0.00
5:53 am 05:53 Clear 54 12.2 37 2.8 53 53 SE 10 17 29.91 1013 10 16 0.00 0.00
6:53 am 06:53 Clear 52 11.1 37 2.8 57 57 SE 8 13 29.92 1013 10 16 0.00 0.00
7:53 am 07:53 Sunny 53 11.7 37 2.8 55 55 SE 12 19 29.93 1014 10 16 0.00 0.00
8:53 am 08:53 Sunny 59 15 36 2.2 42 42 SSE 12 19 29.95 1014 10 16 0.00 0.00
9:53 am 09:53 Sunny 66 18.9 35 1.7 32 32 SSE 10 17 29.95 1014 10 16 0.00 0.00
10:53 am 10:53 Sunny 73 22.8 34 1.1 24 24 SSE 10 17 29.93 1014 10 16 0.00 0.00
11:53 am 11:53 Sunny 79 26.1 35 1.7 20 20 SSE 12 19 29.91 1013 10 16 0.00 0.00
12:53 pm 12:53 Sunny 84 28.9 35 1.7 17 17 SSE 12 19 29.87 1012 10 16 0.00 0.00
1:53 pm 13:53 Sunny 88 31.1 36 2.2 16 16 SE 16 26 29.83 1010 10 16 0.00 0.00
2:53 pm 14:53 Sunny 90 32.2 33 0.6 13 13 SSE 15 24 29.80 1009 10 16 0.00 0.00
3:53 pm 15:53 Sunny 91 32.8 34 1.1 13 13 SE 15 24 29.75 1007 10 16 0.00 0.00
4:53 pm 16:53 Sunny 92 33.3 33 0.6 12 12 ESE 18 30 29.70 1006 10 16 0.00 0.00
5:53 pm 17:53 Sunny 93 33.9 27 -2.8 9 9 S 10 17 29.66 1005 10 16 0.00 0.00
6:50 pm 18:50 Sunny 88 31 30 -1 13 13 SE 21 33 29.56 1001 10 16 0.00 0.00
6:53 pm 18:53 Sunny 88 31.1 31 -0.6 13 13 SE 24 39 29.66 1004 10 16 0.00 0.00
7:53 pm 19:53 Sunny 86 30 28 -2.2 12 12 SE 12 19 29.66 1005 10 16 0.00 0.00
8:53 pm 20:53 Clear 80 26.7 36 2.2 20 20 SE 15 24 29.68 1005 10 16 0.00 0.00
9:53 pm 21:53 Clear 76 24.4 40 4.4 27 27 SE 16 26 29.70 1006 10 16 0.00 0.00
10:53 pm 22:53 Clear 74 23.3 41 5 31 31 SE 15 24 29.69 1005 10 16 0.00 0.00
11:53 pm 23:53 Clear 71 21.7 43 6.1 36 36 SSE 14 22 29.70 1006 10 16 0.00 0.00

Powered by AerisWeather